Time,TemperatureF,DewpointF,PressureIn,WindDirection,WindDirectionDegrees,WindSpeedMPH,WindSpeedGustMPH,Humidity,HourlyPrecipIn,Conditions,Clouds,dailyrainin,SoftwareType,DateUTC
2013-05-03 00:02:00,50.0,37.0,30.32,NNE,21,3.0,16.0,60,0.00,,,0.02,,2013-05-03 05:02:00,
2013-05-03 00:12:00,50.0,37.0,30.32,NNE,21,3.0,16.0,60,0.00,,,0.02,,2013-05-03 05:12:00,
2013-05-03 00:21:00,49.0,36.0,30.32,WNW,292,4.0,12.0,61,0.00,,,0.02,,2013-05-03 05:21:00,
2013-05-03 00:32:00,49.0,37.0,30.32,NNE,30,4.0,13.0,62,0.00,,,0.02,,2013-05-03 05:32:00,
2013-05-03 00:42:00,49.0,37.0,30.32,NNE,30,4.0,13.0,62,0.00,,,0.02,,2013-05-03 05:42:00,
2013-05-03 00:52:00,49.0,37.0,30.32,NNW,336,3.0,11.0,62,0.00,,,0.02,,2013-05-03 05:52:00,
2013-05-03 01:02:00,49.0,37.0,30.32,NE,51,3.0,10.0,62,0.00,,,0.02,,2013-05-03 06:02:00,
2013-05-03 01:12:00,49.0,37.0,30.32,NE,51,3.0,10.0,62,0.00,,,0.02,,2013-05-03 06:12:00,
2013-05-03 01:21:00,49.0,36.0,30.32,NNE,26,2.0,14.0,61,0.00,,,0.02,,2013-05-03 06:21:00,
2013-05-03 01:32:00,48.0,36.0,30.32,WNW,301,3.0,7.0,62,0.00,,,0.02,,2013-05-03 06:32:00,
2013-05-03 01:42:00,48.0,36.0,30.32,WNW,301,3.0,7.0,62,0.00,,,0.02,,2013-05-03 06:42:00,
2013-05-03 01:51:00,48.0,36.0,30.32,North,5,2.0,9.0,63,0.00,,,0.02,,2013-05-03 06:51:00,
2013-05-03 02:01:00,47.0,35.0,30.32,NNE,24,3.0,12.0,64,0.00,,,0.02,,2013-05-03 07:01:00,
2013-05-03 02:11:00,47.0,35.0,30.32,NNE,24,3.0,12.0,64,0.00,,,0.02,,2013-05-03 07:11:00,
2013-05-03 02:21:00,47.0,36.0,30.31,NNE,30,1.0,10.0,65,0.00,,,0.02,,2013-05-03 07:21:00,
2013-05-03 02:31:00,47.0,36.0,30.31,NW,315,2.0,11.0,65,0.00,,,0.02,,2013-05-03 07:31:00,
2013-05-03 02:42:00,47.0,36.0,30.31,NW,315,2.0,11.0,65,0.00,,,0.02,,2013-05-03 07:42:00,
2013-05-03 02:52:00,47.0,36.0,30.30,NNE,23,2.0,8.0,65,0.00,,,0.02,,2013-05-03 07:52:00,
2013-05-03 03:02:00,46.0,35.0,30.30,NW,317,3.0,11.0,66,0.00,,,0.02,,2013-05-03 08:02:00,
2013-05-03 03:11:00,46.0,35.0,30.30,NW,317,3.0,11.0,66,0.00,,,0.02,,2013-05-03 08:11:00,
2013-05-03 03:21:00,46.0,35.0,30.30,WNW,284,2.0,7.0,65,0.00,,,0.02,,2013-05-03 08:21:00,
2013-05-03 03:32:00,46.0,36.0,30.30,NNE,26,1.0,8.0,67,0.00,,,0.00,,2013-05-03 08:32:00,
2013-05-03 03:42:00,46.0,36.0,30.30,NNE,26,1.0,8.0,67,0.00,,,0.00,,2013-05-03 08:42:00,
2013-05-03 03:52:00,45.0,35.0,30.30,NNW,333,2.0,7.0,68,0.00,,,0.00,,2013-05-03 08:52:00,
2013-05-03 04:01:00,45.0,35.0,30.30,NNE,29,2.0,6.0,68,0.00,,,0.00,,2013-05-03 09:01:00,
2013-05-03 04:12:00,45.0,35.0,30.30,NNE,29,2.0,6.0,68,0.00,,,0.00,,2013-05-03 09:12:00,
2013-05-03 04:21:00,45.0,35.0,30.29,NNW,347,1.0,9.0,68,0.00,,,0.00,,2013-05-03 09:21:00,
2013-05-03 04:32:00,45.0,35.0,30.29,West,278,1.0,8.0,67,0.00,,,0.00,,2013-05-03 09:32:00,
2013-05-03 04:42:00,45.0,35.0,30.29,West,278,1.0,8.0,67,0.00,,,0.00,,2013-05-03 09:42:00,
2013-05-03 04:52:00,45.0,34.0,30.29,NNW,334,2.0,12.0,66,0.00,,,0.00,,2013-05-03 09:52:00,
2013-05-03 05:02:00,45.0,35.0,30.29,NE,38,0.0,7.0,67,0.00,,,0.00,,2013-05-03 10:02:00,
2013-05-03 05:12:00,45.0,35.0,30.29,NE,38,0.0,7.0,67,0.00,,,0.00,,2013-05-03 10:12:00,
2013-05-03 05:22:00,44.0,34.0,30.29,North,355,1.0,7.0,67,0.00,,,0.00,,2013-05-03 10:22:00,
2013-05-03 05:32:00,44.0,34.0,30.29,NNE,26,1.0,7.0,67,0.00,,,0.00,,2013-05-03 10:32:00,
2013-05-03 05:42:00,44.0,34.0,30.29,NNE,26,1.0,7.0,67,0.00,,,0.00,,2013-05-03 10:42:00,
2013-05-03 05:52:00,44.0,33.0,30.29,North,355,2.0,9.0,66,0.00,,,0.00,,2013-05-03 10:52:00,
2013-05-03 06:02:00,44.0,33.0,30.29,North,9,2.0,8.0,66,0.00,,,0.00,,2013-05-03 11:02:00,
2013-05-03 06:11:00,44.0,33.0,30.29,North,9,2.0,8.0,66,0.00,,,0.00,,2013-05-03 11:11:00,
2013-05-03 06:22:00,44.0,33.0,30.29,North,9,1.0,6.0,66,0.00,,,0.00,,2013-05-03 11:22:00,
2013-05-03 06:32:00,44.0,34.0,30.29,NNW,336,0.0,4.0,68,0.00,,,0.00,,2013-05-03 11:32:00,
2013-05-03 06:42:00,44.0,34.0,30.29,NNW,336,0.0,4.0,68,0.00,,,0.00,,2013-05-03 11:42:00,
2013-05-03 06:51:00,44.0,34.0,30.29,North,5,1.0,7.0,67,0.00,,,0.00,,2013-05-03 11:51:00,
2013-05-03 07:01:00,44.0,33.0,30.30,North,355,2.0,6.0,65,0.00,,,0.00,,2013-05-03 12:01:00,
2013-05-03 07:11:00,44.0,33.0,30.30,North,355,2.0,6.0,65,0.00,,,0.00,,2013-05-03 12:11:00,
2013-05-03 07:21:00,44.0,32.0,30.30,WNW,299,2.0,10.0,62,0.00,,,0.00,,2013-05-03 12:21:00,
2013-05-03 07:32:00,45.0,32.0,30.31,North,355,3.0,9.0,61,0.00,,,0.00,,2013-05-03 12:32:00,
2013-05-03 07:42:00,45.0,32.0,30.31,North,355,3.0,9.0,61,0.00,,,0.00,,2013-05-03 12:42:00,
2013-05-03 07:51:00,45.0,33.0,30.31,North,350,1.0,8.0,63,0.00,,,0.00,,2013-05-03 12:51:00,
2013-05-03 08:01:00,45.0,34.0,30.32,NNW,344,1.0,5.0,64,0.00,,,0.00,,2013-05-03 13:01:00,
2013-05-03 08:11:00,45.0,34.0,30.32,NNW,344,1.0,5.0,64,0.00,,,0.00,,2013-05-03 13:11:00,
2013-05-03 08:22:00,46.0,35.0,30.32,NW,319,1.0,5.0,64,0.00,,,0.00,,2013-05-03 13:22:00,
2013-05-03 08:32:00,46.0,34.0,30.32,NNW,342,1.0,5.0,63,0.00,,,0.00,,2013-05-03 13:32:00,
2013-05-03 08:42:00,46.0,34.0,30.32,NNW,342,1.0,5.0,63,0.00,,,0.00,,2013-05-03 13:42:00,
2013-05-03 08:52:00,48.0,35.0,30.32,NNE,19,1.0,10.0,60,0.00,,,0.00,,2013-05-03 13:52:00,
2013-05-03 09:02:00,49.0,34.0,30.32,NNE,28,3.0,9.0,56,0.00,,,0.00,,2013-05-03 14:02:00,
2013-05-03 09:11:00,49.0,34.0,30.32,NNE,28,3.0,9.0,56,0.00,,,0.00,,2013-05-03 14:11:00,
2013-05-03 09:22:00,50.0,33.0,30.32,NNE,22,4.0,14.0,52,0.00,,,0.00,,2013-05-03 14:22:00,
2013-05-03 09:32:00,51.0,33.0,30.33,NE,42,3.0,13.0,50,0.00,,,0.00,,2013-05-03 14:32:00,
2013-05-03 09:42:00,51.0,33.0,30.33,NE,42,3.0,13.0,50,0.00,,,0.00,,2013-05-03 14:42:00,
2013-05-03 09:52:00,52.0,32.0,30.32,NNW,332,5.0,17.0,47,0.00,,,0.00,,2013-05-03 14:52:00,
2013-05-03 10:01:00,53.0,33.0,30.32,North,350,4.0,14.0,47,0.00,,,0.00,,2013-05-03 15:01:00,
2013-05-03 10:11:00,53.0,33.0,30.32,North,350,4.0,14.0,47,0.00,,,0.00,,2013-05-03 15:11:00,
2013-05-03 10:22:00,54.0,32.0,30.32,NNW,331,5.0,14.0,43,0.00,,,0.00,,2013-05-03 15:22:00,
2013-05-03 10:32:00,55.0,32.0,30.32,NNE,28,7.0,19.0,41,0.00,,,0.00,,2013-05-03 15:32:00,
2013-05-03 10:43:00,55.0,32.0,30.32,NNE,28,7.0,19.0,41,0.00,,,0.00,,2013-05-03 15:43:00,
2013-05-03 10:53:00,56.0,32.0,30.32,North,360,4.0,18.0,40,0.00,,,0.00,,2013-05-03 15:53:00,
2013-05-03 11:03:00,57.0,31.0,30.32,North,5,8.0,18.0,37,0.00,,,0.00,,2013-05-03 16:03:00,
2013-05-03 11:13:00,57.0,31.0,30.32,North,5,8.0,18.0,37,0.00,,,0.00,,2013-05-03 16:13:00,
2013-05-03 11:22:00,58.0,31.0,30.32,NW,315,3.0,20.0,36,0.00,,,0.00,,2013-05-03 16:22:00,
2013-05-03 11:32:00,59.0,31.0,30.31,NE,54,5.0,18.0,35,0.00,,,0.00,,2013-05-03 16:32:00,
2013-05-03 11:42:00,59.0,31.0,30.31,NE,54,5.0,18.0,35,0.00,,,0.00,,2013-05-03 16:42:00,
2013-05-03 11:52:00,60.0,32.0,30.30,NE,38,3.0,20.0,34,0.00,,,0.00,,2013-05-03 16:52:00,
2013-05-03 12:02:00,60.0,28.0,30.30,North,10,6.0,20.0,30,0.00,,,0.00,,2013-05-03 17:02:00,
2013-05-03 12:12:00,60.0,28.0,30.30,North,10,6.0,20.0,30,0.00,,,0.00,,2013-05-03 17:12:00,
2013-05-03 12:23:00,62.0,30.0,30.29,West,265,4.0,13.0,30,0.00,,,0.00,,2013-05-03 17:23:00,
2013-05-03 12:32:00,62.0,29.0,30.29,WSW,245,6.0,20.0,29,0.00,,,0.00,,2013-05-03 17:32:00,
2013-05-03 12:42:00,62.0,29.0,30.29,WSW,245,6.0,20.0,29,0.00,,,0.00,,2013-05-03 17:42:00,
2013-05-03 12:51:00,62.0,29.0,30.28,WNW,293,3.0,15.0,29,0.00,,,0.00,,2013-05-03 17:51:00,
2013-05-03 13:01:00,63.0,29.0,30.27,NE,39,4.0,12.0,28,0.00,,,0.00,,2013-05-03 18:01:00,
2013-05-03 13:12:00,63.0,29.0,30.27,NE,39,4.0,12.0,28,0.00,,,0.00,,2013-05-03 18:12:00,
2013-05-03 13:21:00,64.0,30.0,30.26,NNW,335,4.0,19.0,28,0.00,,,0.00,,2013-05-03 18:21:00,
2013-05-03 13:32:00,64.0,29.0,30.25,NNW,338,7.0,22.0,27,0.00,,,0.00,,2013-05-03 18:32:00,
2013-05-03 13:42:00,64.0,29.0,30.25,NNW,338,7.0,22.0,27,0.00,,,0.00,,2013-05-03 18:42:00,
2013-05-03 13:51:00,65.0,30.0,30.23,North,350,6.0,12.0,27,0.00,,,0.00,,2013-05-03 18:51:00,
2013-05-03 14:01:00,65.0,29.0,30.22,NNE,13,7.0,15.0,26,0.00,,,0.00,,2013-05-03 19:01:00,
2013-05-03 14:11:00,65.0,29.0,30.22,NNE,13,7.0,15.0,26,0.00,,,0.00,,2013-05-03 19:11:00,
2013-05-03 14:21:00,65.0,29.0,30.22,West,273,3.0,15.0,26,0.00,,,0.00,,2013-05-03 19:21:00,
2013-05-03 14:32:00,67.0,32.0,30.20,NNE,16,2.0,12.0,27,0.00,,,0.00,,2013-05-03 19:32:00,
2013-05-03 14:42:00,67.0,32.0,30.20,NNE,16,2.0,12.0,27,0.00,,,0.00,,2013-05-03 19:42:00,
2013-05-03 14:52:00,66.0,29.0,30.19,NNE,12,6.0,13.0,25,0.00,,,0.00,,2013-05-03 19:52:00,
2013-05-03 15:02:00,67.0,28.0,30.19,NNE,23,4.0,14.0,23,0.00,,,0.00,,2013-05-03 20:02:00,
2013-05-03 15:11:00,67.0,28.0,30.19,NNE,23,4.0,14.0,23,0.00,,,0.00,,2013-05-03 20:11:00,
2013-05-03 15:21:00,67.0,29.0,30.18,ENE,65,2.0,10.0,24,0.00,,,0.00,,2013-05-03 20:21:00,
2013-05-03 15:32:00,67.0,27.0,30.16,ENE,70,7.0,14.0,22,0.00,,,0.00,,2013-05-03 20:32:00,
2013-05-03 15:42:00,67.0,27.0,30.16,ENE,70,7.0,14.0,22,0.00,,,0.00,,2013-05-03 20:42:00,
2013-05-03 15:52:00,67.0,27.0,30.16,North,360,5.0,14.0,22,0.00,,,0.00,,2013-05-03 20:52:00,
2013-05-03 16:01:00,68.0,28.0,30.14,WNW,286,2.0,9.0,22,0.00,,,0.00,,2013-05-03 21:01:00,
2013-05-03 16:11:00,68.0,28.0,30.14,WNW,286,2.0,9.0,22,0.00,,,0.00,,2013-05-03 21:11:00,
2013-05-03 16:21:00,67.0,27.0,30.14,North,9,6.0,13.0,22,0.00,,,0.00,,2013-05-03 21:21:00,
2013-05-03 16:33:00,67.0,27.0,30.13,NE,51,4.0,13.0,22,0.00,,,0.00,,2013-05-03 21:33:00,
2013-05-03 16:42:00,67.0,27.0,30.13,NE,51,4.0,13.0,22,0.00,,,0.00,,2013-05-03 21:42:00,
2013-05-03 16:52:00,68.0,27.0,30.11,North,355,3.0,12.0,21,0.00,,,0.00,,2013-05-03 21:52:00,
2013-05-03 17:02:00,68.0,29.0,30.11,North,355,2.0,10.0,23,0.00,,,0.00,,2013-05-03 22:02:00,
2013-05-03 17:13:00,68.0,29.0,30.11,North,355,2.0,10.0,23,0.00,,,0.00,,2013-05-03 22:13:00,
2013-05-03 17:22:00,68.0,29.0,30.10,NNW,344,2.0,11.0,23,0.00,,,0.00,,2013-05-03 22:22:00,
2013-05-03 17:32:00,67.0,28.0,30.09,NNE,20,2.0,15.0,23,0.00,,,0.00,,2013-05-03 22:32:00,
2013-05-03 17:42:00,67.0,28.0,30.09,NNE,20,2.0,15.0,23,0.00,,,0.00,,2013-05-03 22:42:00,
2013-05-03 17:52:00,68.0,29.0,30.09,North,5,2.0,8.0,23,0.00,,,0.00,,2013-05-03 22:52:00,
2013-05-03 18:02:00,67.0,27.0,30.09,NE,36,2.0,8.0,22,0.00,,,0.00,,2013-05-03 23:02:00,
2013-05-03 18:11:00,67.0,27.0,30.09,NE,36,2.0,8.0,22,0.00,,,0.00,,2013-05-03 23:11:00,
2013-05-03 18:21:00,67.0,28.0,30.08,NE,41,1.0,9.0,23,0.00,,,0.00,,2013-05-03 23:21:00,
2013-05-03 18:31:00,67.0,28.0,30.08,NW,324,1.0,9.0,23,0.00,,,0.00,,2013-05-03 23:31:00,
2013-05-03 18:41:00,67.0,28.0,30.08,NW,324,1.0,9.0,23,0.00,,,0.00,,2013-05-03 23:41:00,
2013-05-03 18:52:00,67.0,27.0,30.07,NE,34,3.0,10.0,22,0.00,,,0.00,,2013-05-03 23:52:00,
2013-05-03 19:01:00,67.0,29.0,30.07,NNE,32,0.0,10.0,24,0.00,,,0.00,,2013-05-04 00:01:00,
2013-05-03 19:11:00,67.0,29.0,30.07,NNE,32,0.0,10.0,24,0.00,,,0.00,,2013-05-04 00:11:00,
2013-05-03 19:23:00,66.0,30.0,30.07,NNE,26,0.0,4.0,26,0.00,,,0.00,,2013-05-04 00:23:00,
2013-05-03 19:32:00,66.0,28.0,30.07,NNE,26,0.0,2.0,24,0.00,,,0.00,,2013-05-04 00:32:00,
2013-05-03 19:41:00,66.0,28.0,30.07,NNE,26,0.0,2.0,24,0.00,,,0.00,,2013-05-04 00:41:00,
2013-05-03 19:52:00,66.0,30.0,30.07,NNE,26,0.0,4.0,26,0.00,,,0.00,,2013-05-04 00:52:00,
2013-05-03 20:01:00,65.0,30.0,30.07,NNE,26,0.0,1.0,27,0.00,,,0.00,,2013-05-04 01:01:00,
2013-05-03 20:11:00,65.0,30.0,30.07,NNE,26,0.0,1.0,27,0.00,,,0.00,,2013-05-04 01:11:00,
2013-05-03 20:21:00,63.0,31.0,30.07,NNE,26,0.0,0.0,30,0.00,,,0.00,,2013-05-04 01:21:00,
2013-05-03 20:32:00,62.0,32.0,30.07,NNE,26,0.0,0.0,32,0.00,,,0.00,,2013-05-04 01:32:00,
2013-05-03 20:41:00,62.0,32.0,30.07,NNE,26,0.0,0.0,32,0.00,,,0.00,,2013-05-04 01:41:00,
2013-05-03 20:52:00,60.0,32.0,30.08,NNE,26,0.0,0.0,34,0.00,,,0.00,,2013-05-04 01:52:00,
2013-05-03 21:02:00,60.0,33.0,30.08,NNE,26,0.0,0.0,36,0.00,,,0.00,,2013-05-04 02:02:00,
2013-05-03 21:11:00,60.0,33.0,30.08,NNE,26,0.0,0.0,36,0.00,,,0.00,,2013-05-04 02:11:00,
2013-05-03 21:21:00,59.0,33.0,30.09,NNE,26,0.0,0.0,38,0.00,,,0.00,,2013-05-04 02:21:00,
2013-05-03 21:32:00,56.0,35.0,30.09,NNE,26,0.0,0.0,45,0.00,,,0.00,,2013-05-04 02:32:00,
2013-05-03 21:41:00,56.0,35.0,30.09,NNE,26,0.0,0.0,45,0.00,,,0.00,,2013-05-04 02:41:00,
2013-05-03 21:52:00,55.0,34.0,30.09,NNE,26,0.0,0.0,45,0.00,,,0.00,,2013-05-04 02:52:00,
2013-05-03 22:02:00,54.0,33.0,30.10,NNE,26,0.0,0.0,45,0.00,,,0.00,,2013-05-04 03:02:00,
2013-05-03 22:11:00,54.0,33.0,30.10,NNE,26,0.0,0.0,45,0.00,,,0.00,,2013-05-04 03:11:00,
2013-05-03 22:22:00,54.0,35.0,30.10,NNE,26,0.0,0.0,48,0.00,,,0.00,,2013-05-04 03:22:00,
2013-05-03 22:33:00,53.0,35.0,30.10,NNE,26,0.0,0.0,51,0.00,,,0.00,,2013-05-04 03:33:00,
2013-05-03 22:43:00,53.0,35.0,30.10,NNE,26,0.0,0.0,51,0.00,,,0.00,,2013-05-04 03:43:00,
2013-05-03 22:52:00,53.0,35.0,30.10,NNE,26,0.0,0.0,50,0.00,,,0.00,,2013-05-04 03:52:00,
2013-05-03 23:02:00,53.0,37.0,30.10,NNE,26,0.0,0.0,54,0.00,,,0.00,,2013-05-04 04:02:00,
2013-05-03 23:12:00,53.0,37.0,30.10,NNE,26,0.0,0.0,54,0.00,,,0.00,,2013-05-04 04:12:00,
2013-05-03 23:22:00,52.0,37.0,30.10,NNE,26,0.0,0.0,56,0.00,,,0.00,,2013-05-04 04:22:00,
2013-05-03 23:33:00,50.0,37.0,30.09,NNE,26,0.0,1.0,60,0.00,,,0.00,,2013-05-04 04:33:00,
2013-05-03 23:42:00,50.0,37.0,30.09,NNE,26,0.0,1.0,60,0.00,,,0.00,,2013-05-04 04:42:00,
2013-05-03 23:52:00,50.0,37.0,30.09,NNE,26,0.0,1.0,61,0.00,,,0.00,,2013-05-04 04:52:00,